Regional Weather Roundup
Issued by NWS

Home | Current Version | Previous Version | Graphics & Text | Print | Product List | Glossary On
Versions: 1 2 3 4 5 6 7 8 9 10 11 12 13 14 15 16 17 18 19 20 21 22 23 24 25 26 27 28 29 30 31 32 33 34 35 36 37 38 39 40 41 42 43 44 45 46 47 48 49 50
028
ASUS44 KLIX 260011
RWRLA
LOUISIANA WEATHER ROUNDUP
NATIONAL WEATHER SERVICE NEW ORLEANS LA
700 PM CDT WED MAR 25 2015

NOTE: "FAIR" INDICATES FEW OR NO CLOUDS BELOW 12,000 FEET WITH NO
      SIGNIFICANT WEATHER AND/OR OBSTRUCTIONS TO VISIBILITY.
      SKY/WX - SKY CONDITION AND SIGNIFICANT WEATHER.
      TMP - AIR TEMPERATURE.    DP   - DEWPOINT TEMPERATURE.
      RH  - RELATIVE HUMIDITY.  PRES - PRESSURE.
      HX  - HEAT INDEX.         WCI  - WIND CHILL INDEX.

*  THESE STATIONS ARE NOT NWS OR FAA STATIONS AND ARE NOT UNDER
   NWS QUALITY CONTROL.

LAZ040-048-061>063-065-066-069-260100-
SOUTHEAST LOUISIANA

CITY           SKY/WX    TMP DP  RH WIND       PRES   REMARKS
N.O. AUDUBON   NOT AVBL
N.O. INTL ARPT MOCLDY    72  57  59 S10       29.99S
6HR MIN TEMP:  72; 6HR MAX TEMP:  77;

N.O. LAKEFRONT FAIR      74  57  55 SE9       30.00S
6HR MIN TEMP:  74; 6HR MAX TEMP:  78;

SLIDELL        FAIR      72  61  68 SE6       30.00S
6HR MIN TEMP:  72; 6HR MAX TEMP:  80;

BATON ROUGE    FAIR      73  58  59 SE8       29.97F
6HR MIN TEMP:  73; 6HR MAX TEMP:  80;

BOOTHVILLE     FAIR      70  62  76 E5        30.01S
6HR MIN TEMP:  70; 6HR MAX TEMP:  77;

BELLE CHASSE   MOCLDY    72  57  59 SE7       29.99S
6HR MIN TEMP:  72; 6HR MAX TEMP:  78;

BOGALUSA*        N/A     77  56  49 S9        30.00S
6HR MIN TEMP:  77; 6HR MAX TEMP:  83;

GALLIANO*      FAIR      73  60  63 CALM      30.00S
6HR MIN TEMP:  73; 6HR MAX TEMP:  79;

NEW ROADS*     FAIR      74  56  53 SE7       29.96F
6HR MIN TEMP:  73; 6HR MAX TEMP:  78;

GONZALES*      FAIR      74  57  55 S5        29.98S
6HR MIN TEMP:  73; 6HR MAX TEMP:  79;

HAMMOND*       FAIR      72  55  56 SE7       30.00S
HOUMA*         PTCLDY    73  61  64 SE7       29.99S
PORT FOURCHON* CLEAR     72  64  78 SE9G15    30.03S

$$

LAZ041-044-053-054-260100-
SOUTHWEST LOUISIANA

CITY           SKY/WX    TMP DP  RH WIND       PRES   REMARKS
LAKE CHARLES   FAIR      70  59  68 S9        29.96S
6HR MIN TEMP:  70; 6HR MAX TEMP:  78;

LAFAYETTE      FAIR      73  52  47 S8        29.97S
6HR MIN TEMP:  73; 6HR MAX TEMP:  79;

PATTERSON      FAIR      72  59  64 S5        29.99R
6HR MIN TEMP:  72; 6HR MAX TEMP:  79;

SALT POINT       N/A     69  61  75 SE3       29.97S
6HR MIN TEMP:  69; 6HR MAX TEMP:  76;

NEW IBERIA     FAIR      71  56  58 S9        29.99R
6HR MIN TEMP:  71; 6HR MAX TEMP:  80;

CHENAULT AIRPK CLEAR     72  61  68 S9        29.97S

$$

LAZ027-028-260100-
CENTRAL LOUISIANA

CITY           SKY/WX    TMP DP  RH WIND       PRES   REMARKS
FORT POLK      FAIR      74  57  55 S9        29.92S
6HR MIN TEMP:  73; 6HR MAX TEMP:  79;

ALEXANDRIA INT FAIR      73  56  54 S8        29.92S
6HR MIN TEMP:  72; 6HR MAX TEMP:  77;

ALEXANDRIA     FAIR      74  55  51 VRB6      29.93F
6HR MIN TEMP:  73; 6HR MAX TEMP:  78;


$$

LAZ001-002-260100-
NORTHWEST LOUISIANA

CITY           SKY/WX    TMP DP  RH WIND       PRES   REMARKS
SHREVEPORT     FAIR      78  56  46 S10       29.86F
6HR MIN TEMP:  75; 6HR MAX TEMP:  83;

BARKSDALE AFB  FAIR      75  58  53 SE13      29.86F
6HR MIN TEMP:  72; 6HR MAX TEMP:  80;

DTN SHREVEPORT MOCLDY    75  57  53 SE13      29.86F
6HR MIN TEMP:  71; 6HR MAX TEMP:  79;


$$

LAZ014-016-260100-
NORTHEAST LOUISIANA

CITY           SKY/WX    TMP DP  RH WIND       PRES   REMARKS
MONROE         FAIR      75  56  51 S10G17    29.92F
6HR MIN TEMP:  72; 6HR MAX TEMP:  77;

TALLULAH       FAIR      74  57  55 S9        29.93F
6HR MIN TEMP:  74; 6HR MAX TEMP:  80;


$$




USA.gov is the U.S. government's official web portal to all federal, state and local government web resources and services.